THOR ABLESTAR DEB, 119

Orbit data source: Space-Track

THOR ABLESTAR DEB, 119 is space debris in LEO originally from a launch on Thu, 29 Jun 1961 UTC launched from the Air Force Eastern Test Range (AFETR). Debris objects in space refer to the collection of defunct objects orbiting the Earth. Examples of debris include non-operational satellites, rocket bodies, and fragments generated from explosions, collisions, or faulty payload assembly.

Loading next visibility...
Identifier
119, 1961-015D
Orbit
LEO
Last TLE update
2 days ago
Origin
Manufacturer
Unknown
Mission
Spacecraft
Bus & Motor
Unknown
Mass
Unknown
Launch date (UTC)
1961-06-29 (64 years ago)
Launch vehicle
Unknown
Launch site
Air Force Eastern Test Range (AFETR)
Object type
Payload
Rocket body
Debris
Shape & HBR
Unknown
Radar Cross Section
0.250 m², Medium (>0.1 m² and < 1m²)

Expand to show TLE details & history

TLE from 2 days ago
0 THOR ABLESTAR DEB
1   119U 61015D   25108.20255067  .00001242  00000-0  51892-3 0  9994
2   119  66.7272  53.5538 0104033 211.9864 147.4892 14.26512342298121
Epoch: 2025-04-18T04:51Z
Definitive object data (Epoch: 2025-04-18T04:51:40.377Z)
Latitude
-0.00001°
Longitude
134.07208°
Altitude
868.75 km
Speed
7.386 km/s
True Right ascension
03h 34m 12s
True Declination
0° 00' 00"
Sunlit
Object was in daylight at TLE epoch
Visualization TLE readout
Latitude
-20.96489°
Longitude
-41.14912°
Altitude
736.491 km
Speed
7.525 km/s
Apparent Right ascension
17h 05m 46s
Apparent Declination
-31° 32' 08"
Sunlit
Object is in full shadow
Visualization observer readout
Local Sidereal Time
06:45:32
Azimuth
75.236° E
Elevation
-68.178°
Doppler factor
1
Orbital elements
Apogee altitude
876.481 km
Perigee altitude
727.092 km
Semi-major axis
7,179.924 km
Eccentricity
0.0104033
Inclination
66.7272°
RAAN
53.5538°
Arg. of periapsis
211.9864°
True anomaly
148.12295°
Mean anomaly
147.4892°
Eccentric anomaly
147.80677°
Mean motion
3.5675 °/min
BSTAR
0.00051892
Orbital period
100.91 mins
Loading maneuver chart data...
Loading SW <> Apogee altitude chart data...

THOR ABLESTAR DEB Visibility forecast

Observer location: undefined°, undefined°

Span
Click to sort rows by Start time (UTC) header in descending order
Start Az.
Max El. time (UTC)
Max El. Az.
Max El.
End time (UTC)
End Az.
9 mins2025-04-20 06:12:42.027Z346.172° N2025-04-20 06:16:42.027Z46.404° ENE35.084°2025-04-20 06:21:42.027Z126.546° SE
6 mins2025-04-20 07:57:42.027Z291.583° WNW2025-04-20 08:00:42.027Z246.59° WSW21.926°2025-04-20 08:03:42.027Z206.484° SW
9 mins2025-04-20 20:55:42.027Z180.89° SSW2025-04-20 20:59:42.027Z121.929° SE36.819°2025-04-20 21:04:42.027Z42.742° NE
8 mins2025-04-20 22:40:42.027Z264.271° W2025-04-20 22:43:42.027Z306.128° NW25.538°2025-04-20 22:48:42.027Z8.406° NNE
|